Location: Seven Kings
(51.5667°N, 0.1000°E)
Time: 03:01:45
(UTC+00:00)

Aureole 3 Rocket - Pass Details

Date: 29 October 2020
Orbit: 399 x 1739 km, 82.5° (Epoch: 24 November)

Event Time Altitude Azimuth Distance (km) Brightness Sun altitude
Rises 18:06:16 0° 189° (S) 2,738 6.6 -14.3°
Reaches altitude 10° 18:08:08 10° 190° (S) 1,973 5.8 -14.6°
Maximum altitude 18:12:29 88° 281° (W) 771 3.5 -15.3°
Drops below altitude 10° 18:18:42 10° 11° (N) 2,789 6.3 -16.2°
Sets 18:21:45 0° 12° (NNE) 3,975 7.1 -16.7°
